CZ-6A DEB, 60987

Orbit data source: Space-Track

CZ-6A DEB, 60987 is space debris in LEO originally from a launch on Tue, 06 Aug 2024 UTC launched from the Taiyaun Space Center, China (TSC). Debris objects in space refer to the collection of defunct objects orbiting the Earth. Examples of debris include non-operational satellites, rocket bodies, and fragments generated from explosions, collisions, or faulty payload assembly.

Loading next visibility...
Identifier
60987, 2024-140MN
Orbit
LEO
Country
Flag of CNCN / PRC
Related business
Manufacturer
SAST
Mission
Spacecraft
Bus & Motor
Unknown
Mass
Unknown
Launch date (UTC)
2024-08-06 (2 years ago)
Launch vehicle
Unknown
Launch site
Taiyaun Space Center, China (TSC)
Object type
Payload
Rocket body
Debris
Shape & HBR
Unknown shape, 0.1 m
Radar Cross Section
Medium (>0.1 m² and <1 m²)

Expand to show TLE details & history
Last TLE update: 13 hours ago

TLE from 13 hours ago
0 CZ-6A DEB
1 60987U 24140MN  26171.29317428  .00000115  00000-0  48415-4 0  9997
2 60987  88.9959 274.1048 0049830 189.1079 170.9212 14.18069083 94606
Epoch: 2026-06-20T07:02Z
TLE epoch observation values (Epoch: 2026-06-20T07:02:10.257Z)
Latitude
-0°
Longitude
-99.94782°
Altitude
870.43 km
Speed
7.399 km/s
True Right ascension
18h 16m 25s
True Declination
0° 00' 00"
Sunlit
Object was in full shadow at epoch
Visualization orbit readout
Latitude
Unknown
Longitude
Unknown
Altitude
Unknown
Speed
Unknown
Apparent Right ascension
Unknown
Apparent Declination
Unknown
Sunlit
N/A
Visualization observer readout
Local Sidereal Time
07:20:57
Azimuth
Unknown
Elevation
Unknown
Doppler factor
Unknown
Orbital elements
Apogee altitude
864.757 km
Perigee altitude
792.932 km
Semi-major axis
7,206.981 km
Eccentricity
0.00498
Inclination
88.9959°
RAAN
274.1048°
Arg. of periapsis
189.1079°
True anomaly
171.01075°
Mean anomaly
170.9212°
Eccentric anomaly
170.96603°
Mean motion
3.54742 °/min
Orbital period
101.48 mins
BSTAR
0.000048415
Loading maneuver chart data...
Computing Atmospheric mass density...
Loading historical data...
Loading historical data...
Loading historical data...
Loading historical data...
Loading historical data...
Loading historical data...
Loading historical data...

Documentation

Showing up to 5 results
|